www.pogodaiklimat.ru

Погода и климат >> Архив погоды >> Алжир >> Mostaganem Ville


ПОГОДА в Mostaganem Ville

  • Прогноз погоды в Mostaganem Ville
  • Монитор погоды в Mostaganem Ville
  • Климат города

АРХИВ ПОГОДЫ в Mostaganem Ville

Время (UTC), дата Ветер
(напр.,м/с)
 
Видим.   Явления Облачность Т
(С)
Тd
(С)
f
(%)
Тe
(С)
Тes
(С)
Комфортность P
(гПа)
Po
(гПа)
Тmin
(С)
Tmax
(С)
R
(мм)
R24
(мм)
S
(см)
06 9.12 СВ 1 10 км 9/0
[Ac cast]
+7.3 +4.8 84 +6 +6 1024.6 1025.0 +5.3
09 9.12 ЮЗ 2 10 км 9/4 800 м
[Sc Ac cast]
+12.9 +2.8 50 +13 +13 1025.5 1026.0
12 9.12 ЮЗ 3 10 км 8/5 800 м
[Sc Ac cast]
+16.6 +7.0 53 +16 +18 1024.7 1025.0
15 9.12 З 2 10 км 8/8 800 м
[Cu med, cong]
+16.5 +12.6 78 +17 +17 1023.7 1024.0
18 9.12 СЗ 2 10 км 6/6 800 м
[Cu med, cong]
+15.5 +13.6 88 +16 +16 1024.5 1025.0 +17.0
06 10.12 ЮЗ 4 10 км 8/8 800 м
[Sc]
+14.4 +12.0 85 +13 +13 1022.6 1023.0 +13.3
09 10.12 ЮЗ 5 10 км 9/9 800 м
[Sc]
+15.4 +11.9 80 +14 +14 1022.7 1023.0
12 10.12 ЮЗ 6 10 км 9/9 800 м
[Sc]
+17.3 +11.7 70 +16 +17 1020.7 1021.0
15 10.12 З 6 10 км 8/3 800 м
[Sc Ci sp]
+17.4 +11.8 70 +17 +17 1017.0 1017.0
18 10.12 ЮЗ 5 10 км 6/3 800 м
[Sc Ci sp]
+16.2 +10.4 68 +15 +15 1015.9 1016.0 +17.5
06 11.12 штиль 0 10 км 9/0
[As trans]
+13.2 +7.8 70 +13 +13 1004.4 1004.0 +13.1
09 11.12 Ю 4 10 км 9/0
[As op]
+16.1 +5.7 50 +16 +16 1002.4 1002.0
12 11.12 ЮЗ 4 10 км 9/0
[As trans]
+18.6 +3.5 37 +19 +21 1001.5 1002.0
15 11.12 З 7 10 км 10/10 600 м
[Cu Sc]
+14.7 +10.2 74 +13 +13 1005.0 1005.0
18 11.12 ЮЗ 5 8000 м дождь 10/10 600 м
[Cu Sc]
+12.2 +9.5 84 +10 +10 1006.8 1007.0 +19.8 1
06 12.12 ЮЗ 4 10 км 6/6 800 м
[Sc]
+10.2 +7.5 83 +8 +8 1011.2 1011.0 +10.1 3
09 12.12 ЮЗ 3 10 км 9/4 800 м
[Sc As trans]
+10.9 +7.8 81 +9 +10 1014.5 1015.0
12 12.12 ЮЗ 5 10 км 9/4 800 м
[Sc As trans]
+13.3 +9.0 75 +11 +12 1015.5 1016.0
15 12.12 СЗ 2 8000 м дождь 9/5 800 м
[Sc As trans]
+12.4 +10.0 85 +12 +12 1016.5 1017.0
18 12.12 ЮЗ 1 10 км в посл. час дождь 8/5 800 м
[Sc Ac cast]
+11.3 +9.0 86 +11 +11 1019.4 1019.0 +13.5 0.8
06 13.12 штиль 0 10 км ясно +3.9 +3.2 95 +3 +3 1027.0 1027.0 +3.8 0.8
09 13.12 штиль 0 3000 м дымка ясно +8.4 +7.8 96 +7 +10 1028.4 1028.0
12 13.12 З 2 8000 м 4/4 600 м
[Cu med, cong]
+14.7 +6.3 57 +15 +19 1028.6 1029.0
15 13.12 З 2 10 км ясно +15.3 +6.6 56 +16 +18 1027.1 1027.0
18 13.12 штиль 0 10 км ясно +9.8 +5.2 73 +9 +9 1027.6 1028.0 +16.3
06 14.12 штиль 0 10 км ясно +2.5 +1.7 94 +1 +1 1025.7 1026.0 +2.4
09 14.12 Ю 2 10 км 1/0
[Ci fib]
+9.3 +8.3 93 +8 +10 1025.5 1026.0
12 14.12 З 4 10 км 1/0
[Ci fib]
+15.1 +8.9 66 +14 +18 1024.1 1024.0
15 14.12 ЮЗ 4 10 км 1/0
[Ci fib]
+16.2 +9.3 64 +15 +17 1021.5 1022.0
18 14.12 ЮЗ 2 10 км 1/0
[Ci sp]
+11.4 +6.4 71 +11 +11 1020.7 1021.0 +16.2
06 15.12 ЮЗ 4 10 км 5/5 800 м
[Cu med, cong]
+13.7 +9.4 75 +12 +12 1016.5 1017.0 +10.5
09 15.12 ЮЗ 4 12 км 9/9 600 м
[Cu Sc]
+14.8 +10.1 73 +14 +14 1016.2 1016.0
12 15.12 ЮЗ 5 10 км 9/9 600 м
[Cu Sc]
+16.2 +11.8 75 +15 +15 1014.3 1014.0
15 15.12 ЮЗ 6 10 км 9/9 600 м
[Frnb]
+16.3 +12.3 77 +15 +15 1012.4 1012.0
18 15.12 ЮЗ 5 10 км 9/9 600 м
[Frnb]
+15.9 +12.9 82 +15 +15 1012.7 1013.0 +17.1

 

Местоположение метеостанции Mostaganem Ville (Алжир): широта 35.88 долгота 0.12 высота над уровнем моря 138 м.

В архиве по умолчанию представлена погода в Mostaganem Ville за последнюю неделю. Архивные данные за месяц целиком и за предыдущие месяцы, начиная с января 2011 года, Вы можете получить, выбрав интересующий диапазон дат из раскрывающегося списка и нажав кнопку "Ввод!".

Внимание! Время в таблицах - всемирное. Для получения местного времени необходимо прибавить поправку, которая в Mostaganem Ville равна 1 ч.

Смотрите также архив погоды в соседних городах и на ближайших метеорологических станциях:

Погода в Arzew (Алжир) (36 км)
Погода в Relizane (Алжир) (42 км)
Погода в Oran (Es Senia) (Алжир) (71 км)
Погода в Oran-Port (Алжир) (72 км)
Погода в Oran Tafaraoui (Алжир) (73 км)
Погода в Mascara Ghriss (Алжир) (73 км)
Погода в Sidi Bel Abbes (Алжир) (101 км)
Погода в Saida (Алжир) (112 км)
Погода в Chlef (Алжир) (115 км)
Погода в Tenes (Алжир) (129 км)

Пояснения к столбцам:

Ветер - указаны скорость ветра в м/с - средняя за 10 мин, порывы в срок и между сроками (в фигурных скобках) и направление, откуда дует ветер: С - северный, СВ - северо-восточный, В - восточный, ЮВ - юго-восточный, Ю - южный, ЮЗ - юго-западный, З - западный, СЗ - северо-западный.
Видимость - горизонтальная дальность видимости в метрах или километрах. При видимости от 1 до 10 км при отсутствии осадков обычно наблюдается дымка, при ухудшении видимости до 1 км и менее - туман. В сухую погоду видимость может ухудшаться дымом, пылью или мглою.
Явления - указаны атмосферные явления, наблюдавшиеся в срок или в последний час перед сроком; фигурными скобками обозначены явления, наблюдавшиеся между сроками (за 1-3 часа до срока); квадратными скобками обозначены град или гололедные отложения с указанием их диаметра в мм.
Облачность - указаны через наклонную черту общая и нижняя облачность в баллах и высота нижней границы облаков в метрах; квадратными скобками обозначены формы облаков: Ci - перистые, Cs - перисто-слоистые, Cc - перисто-кучевые, Ac - высококучевые, As - высокослоистые, Sc - слоисто-кучевые, Ns - слоисто-дождевые, Cu - кучевые, Cb - кучево-дождевые. Подробнее классификацию облаков см. в Атласе облаков (PDF).
T - Температура воздуха - температура, измеренная на высоте 2 м над землей.
Td - Температура точки росы - температура, при понижении до которой содержащийся в воздухе водяной пар достигнет насыщения.
f - Относительная влажность воздуха - влажноcть воздуха, измеренная на высоте 2 м над землей.
Te - Эффективная температура - температура, которую ощущает одетый по сезону человек в тени. Характеристика душности погоды. При расчете учитывается влияние влажности воздуха и скорости ветра на теплоощущения человека.
Tes - Эффективная температура на солнце - температура, которую ощущает человек, с поправкой на солнечный нагрев. Характеристика знойности погоды. Зависит от высоты солнца над горизонтом, облачности и скорости ветра. Ночью, в пасмурную погоду, а также при ветре 12 м/с и более поправка равна нулю.
P - Атмосферное давление - приведенное к уровню моря атмосферное давление.
Po - Атмосферное давление - измеренное на уровне метеостанции атмосферное давление.
Tmin - Минимальная температура - минимум температуры воздуха на высоте 2 м над землей.
Tmax - Максимальная температура - максимум температуры воздуха на высоте 2 м над землей.
R - Количество осадков - Количество выпавших осадков за период времени, мм. При наведении курсора мыши на число - период времени, за который выпало указанное количество осадков.
R24 - Количество осадков - Количество выпавших осадков за 24 часа, мм.
S - Снежный покров - Высота снежного покрова, см. При наведении курсора мыши на число - состояние снежного покрова и степень покрытия местности в баллах.